(352185) = 2007 RW189

Discovered at Kitt Peak on 2007-09-10 by Spacewatch.

Orbit

Orbit type: Main Belt

Note: WebGL enabled browser required.

epoch2023-02-25.0
epoch JD2460000.5
perihelion date2020-12-03.33596
perihelion JD2459186.83596
argument of perihelion (°)311.73520
ascending node (°)36.25266
inclination (°)3.08779
eccentricity0.1176903
perihelion distance (AU)2.3904305
Tisserand w.r.t. Jupiter3.4
ΔV w.r.t. Earth (km/sec)9.7
semimajor axis (AU)2.7092872
mean anomaly (°)179.83176
mean daily motion (°/day)0.22101480
aphelion distance (AU)3.028
period (years)4.46
P-vector [x]0.97746285
P-vector [y]-0.17415464
P-vector [z]-0.11931697
Q-vector [x]0.20869051
Q-vector [y]0.88241385
Q-vector [z]0.42165633
absolute magnitude17.48
phase slope0.15
uncertainty0
referenceMPEC 2023-E73
observations used143
oppositions13
arc length (days)7054
first opposition used2003
last opposition used2023
residual rms (arc-secs)0.95
perturbers coarse indicatorM-v
perturbers precise indicator003Ek
first observation date used2003-11-19.0
last observation date used2023-03-13.0
computer nameMPCLINUX
JD of orbit computation2456731.613570
perihelion JD uncertainty (days)2.0238E-04
argument of perihelion uncertainty (°)1.4297E-04
ascending node uncertainty (°)1.3597E-04
inclination uncertainty (°)8.6412E-06
eccentricity uncertainty 1.0148E-07
perihelion distance uncertainty (AU)3.1121E-07
Minimum Orbit Intersection Distances (in AU)
for orbit epoch: 2459200.5, reference: E2021-B25
Mercury1.99927
Venus1.66104
Earth1.38115
Mars1.00205
Jupiter2.361
Saturn6.2397
Uranus15.3142
Neptune27.3934

Observations

148 total observations over interval: 2003 11 19.43892 – 2023 03 13.325337
These data are available for download (format description).

